STARLINK-1032 (44737 NORAD) Tracking and Keplerian Element Data

This shows tracking and keplerian element data for the satellite.

Feedback or suggestion? Click here.




ElementValue
Catalog44737
NameSTARLINK-1032
Epoch Orbit592
Epoch Day34.83335648
Epoch Year2025
RAAN165.3276
Inclination53.0468
Eccentricity0.0004561
Argument of Perigee340.8401
Mean Anonmoly281.0168
Mean Motion15.74533005
Decay Rate0.00182928
L11 44737U 19074AA 25034.83335648 .00182928 00000+0 12077-2 0 9998
L22 44737 53.0468 165.3276 0004561 340.8401 281.0168 15.74533005 5924



Live tracking and technical data element details for STARLINK-1032 (NORAD 44737). STARLINK-1032 can be tracked NOW for your location showing map with azimuth and elevation plus other details from your city location.







IsCatalogInMostPopularTable: catalog: 44737, numindb: 296
Update: records affected: 1



GetName: 44737 STARLINK-1032

Hit Count: updated at: Thu, 22 May 2025 03:45:25 GMT